Year,Month,Day,Hour,Minute,Value (Times are PST for temperature in C)
2012,08,25,00,00,10.90
2012,08,25,00,01,10.90
2012,08,25,00,02,10.80
2012,08,25,00,03,10.80
2012,08,25,00,04,10.80
2012,08,25,00,05,10.80
2012,08,25,00,06,10.80
2012,08,25,00,07,10.80
2012,08,25,00,08,10.80
2012,08,25,00,09,10.70
2012,08,25,00,10,10.70
2012,08,25,00,11,10.70
2012,08,25,00,12,10.70
2012,08,25,00,13,10.60
2012,08,25,00,14,10.60
2012,08,25,00,15,10.60
2012,08,25,00,16,10.60
2012,08,25,00,17,10.60
2012,08,25,00,18,10.60
2012,08,25,00,19,10.60
2012,08,25,00,20,10.60
2012,08,25,00,21,10.50
2012,08,25,00,22,10.50
2012,08,25,00,23,10.50
2012,08,25,00,24,10.50
2012,08,25,00,25,10.50
2012,08,25,00,26,10.50
2012,08,25,00,27,10.50
2012,08,25,00,28,10.50
2012,08,25,00,29,10.40
2012,08,25,00,30,10.40
2012,08,25,00,31,10.40
2012,08,25,00,32,10.40
2012,08,25,00,33,10.40
2012,08,25,00,34,10.40
2012,08,25,00,35,10.40
2012,08,25,00,36,10.40
2012,08,25,00,37,10.40
2012,08,25,00,38,10.40
2012,08,25,00,39,10.40
2012,08,25,00,40,10.40
2012,08,25,00,41,10.40
2012,08,25,00,42,10.40
2012,08,25,00,43,10.40
2012,08,25,00,44,10.40
2012,08,25,00,45,10.40
2012,08,25,00,46,10.40
2012,08,25,00,47,10.40
2012,08,25,00,48,10.30
2012,08,25,00,49,10.30
2012,08,25,00,50,10.30
2012,08,25,00,51,10.30
2012,08,25,00,52,10.30
2012,08,25,00,53,10.30
2012,08,25,00,54,10.30
2012,08,25,00,55,10.30
2012,08,25,00,56,10.20
2012,08,25,00,57,10.20
2012,08,25,00,58,10.20
2012,08,25,00,59,10.20
2012,08,25,01,00,10.20
2012,08,25,01,01,10.10
2012,08,25,01,02,10.10
2012,08,25,01,03,10.10
2012,08,25,01,04,10.10
2012,08,25,01,05,10.10
2012,08,25,01,06,10.10
2012,08,25,01,07,10.10
2012,08,25,01,08,10.10
2012,08,25,01,09,10.00
2012,08,25,01,10,10.00
2012,08,25,01,11,10.00
2012,08,25,01,12,10.00
2012,08,25,01,13,10.00
2012,08,25,01,14,10.00
2012,08,25,01,15,10.00
2012,08,25,01,16,10.00
2012,08,25,01,17,10.00
2012,08,25,01,18,10.00
2012,08,25,01,19,9.90
2012,08,25,01,20,9.90
2012,08,25,01,21,9.90
2012,08,25,01,22,9.90
2012,08,25,01,23,9.90
2012,08,25,01,24,9.90
2012,08,25,01,25,9.90
2012,08,25,01,26,9.80
2012,08,25,01,27,9.80
2012,08,25,01,28,9.80
2012,08,25,01,29,9.80
2012,08,25,01,30,9.80
2012,08,25,01,31,9.80
2012,08,25,01,32,9.80
2012,08,25,01,33,9.80
2012,08,25,01,34,9.80
2012,08,25,01,35,9.80
2012,08,25,01,36,9.80
2012,08,25,01,37,9.80
2012,08,25,01,38,9.90
2012,08,25,01,39,9.90
2012,08,25,01,40,9.90
2012,08,25,01,41,9.90
2012,08,25,01,42,9.80
2012,08,25,01,43,9.80
2012,08,25,01,44,9.80
2012,08,25,01,45,9.80
2012,08,25,01,46,9.80
2012,08,25,01,47,9.80
2012,08,25,01,48,9.80
2012,08,25,01,49,9.80
2012,08,25,01,50,9.80
2012,08,25,01,51,9.80
2012,08,25,01,52,9.80
2012,08,25,01,53,9.80
2012,08,25,01,54,9.80
2012,08,25,01,55,9.80
2012,08,25,01,56,9.80
2012,08,25,01,57,9.80
2012,08,25,01,58,9.80
2012,08,25,01,59,9.80
2012,08,25,02,00,9.80
2012,08,25,02,01,9.70
2012,08,25,02,02,9.70
2012,08,25,02,03,9.70
2012,08,25,02,04,9.70
2012,08,25,02,05,9.70
2012,08,25,02,06,9.70
2012,08,25,02,07,9.60
2012,08,25,02,08,9.60
2012,08,25,02,09,9.60
2012,08,25,02,10,9.60
2012,08,25,02,11,9.60
2012,08,25,02,12,9.50
2012,08,25,02,13,9.50
2012,08,25,02,14,9.50
2012,08,25,02,15,9.50
2012,08,25,02,16,9.50
2012,08,25,02,17,9.50
2012,08,25,02,18,9.50
2012,08,25,02,19,9.50
2012,08,25,02,20,9.50
2012,08,25,02,21,9.50
2012,08,25,02,22,9.40
2012,08,25,02,23,9.40
2012,08,25,02,24,9.40
2012,08,25,02,25,9.40
2012,08,25,02,26,9.40
2012,08,25,02,27,9.40
2012,08,25,02,28,9.30
2012,08,25,02,29,9.30
2012,08,25,02,30,9.30
2012,08,25,02,31,9.30
2012,08,25,02,32,9.30
2012,08,25,02,33,9.30
2012,08,25,02,34,9.30
2012,08,25,02,35,9.30
2012,08,25,02,36,9.30
2012,08,25,02,37,9.30
2012,08,25,02,38,9.30
2012,08,25,02,39,9.30
2012,08,25,02,40,9.30
2012,08,25,02,41,9.30
2012,08,25,02,42,9.20
2012,08,25,02,43,9.20
2012,08,25,02,44,9.20
2012,08,25,02,45,9.20
2012,08,25,02,46,9.20
2012,08,25,02,47,9.20
2012,08,25,02,48,9.20
2012,08,25,02,49,9.20
2012,08,25,02,50,9.20
2012,08,25,02,51,9.20
2012,08,25,02,52,9.20
2012,08,25,02,53,9.20
2012,08,25,02,54,9.10
2012,08,25,02,55,9.10
2012,08,25,02,56,9.10
2012,08,25,02,57,9.10
2012,08,25,02,58,9.10
2012,08,25,02,59,9.10
2012,08,25,03,00,9.10
2012,08,25,03,01,9.10
2012,08,25,03,02,9.10
2012,08,25,03,03,9.10
2012,08,25,03,04,9.10
2012,08,25,03,05,9.10
2012,08,25,03,06,9.10
2012,08,25,03,07,9.10
2012,08,25,03,08,9.20
2012,08,25,03,09,9.20
2012,08,25,03,10,9.10
2012,08,25,03,11,9.10
2012,08,25,03,12,9.10
2012,08,25,03,13,9.10
2012,08,25,03,14,9.10
2012,08,25,03,15,9.10
2012,08,25,03,16,9.10
2012,08,25,03,17,9.10
2012,08,25,03,18,9.10
2012,08,25,03,19,9.10
2012,08,25,03,20,9.10
2012,08,25,03,21,9.10
2012,08,25,03,22,9.10
2012,08,25,03,23,9.00
2012,08,25,03,24,9.00
2012,08,25,03,25,9.10
2012,08,25,03,26,9.00
2012,08,25,03,27,9.10
2012,08,25,03,28,9.10
2012,08,25,03,29,9.10
2012,08,25,03,30,9.10
2012,08,25,03,31,9.10
2012,08,25,03,32,9.10
2012,08,25,03,33,9.10
2012,08,25,03,34,9.10
2012,08,25,03,35,9.10
2012,08,25,03,36,9.10
2012,08,25,03,37,9.10
2012,08,25,03,38,9.10
2012,08,25,03,39,9.10
2012,08,25,03,40,9.20
2012,08,25,03,41,9.10
2012,08,25,03,42,9.20
2012,08,25,03,43,9.20
2012,08,25,03,44,9.20
2012,08,25,03,45,9.20
2012,08,25,03,46,9.20
2012,08,25,03,47,9.20
2012,08,25,03,48,9.20
2012,08,25,03,49,9.20
2012,08,25,03,50,9.20
2012,08,25,03,51,9.20
2012,08,25,03,52,9.20
2012,08,25,03,53,9.20
2012,08,25,03,54,9.20
2012,08,25,03,55,9.30
2012,08,25,03,56,9.30
2012,08,25,03,57,9.30
2012,08,25,03,58,9.30
2012,08,25,03,59,9.30
2012,08,25,04,00,9.30
2012,08,25,04,01,9.20
2012,08,25,04,02,9.20
2012,08,25,04,03,9.20
2012,08,25,04,04,9.20
2012,08,25,04,05,9.20
2012,08,25,04,06,9.20
2012,08,25,04,07,9.20
2012,08,25,04,08,9.20
2012,08,25,04,09,9.20
2012,08,25,04,10,9.20
2012,08,25,04,11,9.20
2012,08,25,04,12,9.20
2012,08,25,04,13,9.20
2012,08,25,04,14,9.20
2012,08,25,04,15,9.20
2012,08,25,04,16,9.20
2012,08,25,04,17,9.10
2012,08,25,04,18,9.10
2012,08,25,04,19,9.10
2012,08,25,04,20,9.10
2012,08,25,04,21,9.10
2012,08,25,04,22,9.10
2012,08,25,04,23,9.10
2012,08,25,04,24,9.10
2012,08,25,04,25,9.10
2012,08,25,04,26,9.10
2012,08,25,04,27,9.10
2012,08,25,04,28,9.10
2012,08,25,04,29,9.00
2012,08,25,04,30,9.00
2012,08,25,04,31,9.00
2012,08,25,04,32,9.00
2012,08,25,04,33,9.00
2012,08,25,04,34,8.90
2012,08,25,04,35,8.90
2012,08,25,04,36,8.90
2012,08,25,04,37,8.90
2012,08,25,04,38,8.90
2012,08,25,04,39,8.90
2012,08,25,04,40,8.90
2012,08,25,04,41,8.90
2012,08,25,04,42,8.90
2012,08,25,04,43,8.90
2012,08,25,04,44,8.90
2012,08,25,04,45,8.90
2012,08,25,04,46,8.90
2012,08,25,04,47,8.80
2012,08,25,04,48,8.80
2012,08,25,04,49,8.80
2012,08,25,04,50,8.80
2012,08,25,04,51,8.80
2012,08,25,04,52,8.80
2012,08,25,04,53,8.80
2012,08,25,04,54,8.80
2012,08,25,04,55,8.80
2012,08,25,04,56,8.80
2012,08,25,04,57,8.80
2012,08,25,04,58,8.80
2012,08,25,04,59,8.80
2012,08,25,05,00,8.80
2012,08,25,05,01,8.80
2012,08,25,05,02,8.80
2012,08,25,05,03,8.80
2012,08,25,05,04,8.80
2012,08,25,05,05,8.80
2012,08,25,05,06,8.80
2012,08,25,05,07,8.80
2012,08,25,05,08,8.80
2012,08,25,05,09,8.80
2012,08,25,05,10,8.80
2012,08,25,05,11,8.80
2012,08,25,05,12,8.80
2012,08,25,05,13,8.80
2012,08,25,05,14,8.80
2012,08,25,05,15,8.80
2012,08,25,05,16,8.80
2012,08,25,05,17,8.80
2012,08,25,05,18,8.80
2012,08,25,05,19,8.80
2012,08,25,05,20,8.80
2012,08,25,05,21,8.80
2012,08,25,05,22,8.80
2012,08,25,05,23,8.80
2012,08,25,05,24,8.80
2012,08,25,05,25,8.80
2012,08,25,05,26,8.80
2012,08,25,05,27,8.80
2012,08,25,05,28,8.80
2012,08,25,05,29,8.80
2012,08,25,05,30,8.80
2012,08,25,05,31,8.80
2012,08,25,05,32,8.80
2012,08,25,05,33,8.80
2012,08,25,05,34,8.80
2012,08,25,05,35,8.80
2012,08,25,05,36,8.80
2012,08,25,05,37,8.80
2012,08,25,05,38,8.80
2012,08,25,05,39,8.80
2012,08,25,05,40,8.80
2012,08,25,05,41,8.80
2012,08,25,05,42,8.80
2012,08,25,05,43,8.80
2012,08,25,05,44,8.80
2012,08,25,05,45,8.80
2012,08,25,05,46,8.80
2012,08,25,05,47,8.80
2012,08,25,05,48,8.80
2012,08,25,05,49,8.80
2012,08,25,05,50,8.80
2012,08,25,05,51,8.70
2012,08,25,05,52,8.70
2012,08,25,05,53,8.70
2012,08,25,05,54,8.70
2012,08,25,05,55,8.70
2012,08,25,05,56,8.70
2012,08,25,05,57,8.70
2012,08,25,05,58,8.70
2012,08,25,05,59,8.70
2012,08,25,06,00,8.70
2012,08,25,06,01,8.60
2012,08,25,06,02,8.60
2012,08,25,06,03,8.60
2012,08,25,06,04,8.60
2012,08,25,06,05,8.60
2012,08,25,06,06,8.50
2012,08,25,06,07,8.50
2012,08,25,06,08,8.50
2012,08,25,06,09,8.50
2012,08,25,06,10,8.50
2012,08,25,06,11,8.40
2012,08,25,06,12,8.40
2012,08,25,06,13,8.40
2012,08,25,06,14,8.40
2012,08,25,06,15,8.40
2012,08,25,06,16,8.40
2012,08,25,06,17,8.40
2012,08,25,06,18,8.40
2012,08,25,06,19,8.40
2012,08,25,06,20,8.30
2012,08,25,06,21,8.30
2012,08,25,06,22,8.30
2012,08,25,06,23,8.30
2012,08,25,06,24,8.30
2012,08,25,06,25,8.30
2012,08,25,06,26,8.30
2012,08,25,06,27,8.30
2012,08,25,06,28,8.30
2012,08,25,06,29,8.30
2012,08,25,06,30,8.30
2012,08,25,06,31,8.30
2012,08,25,06,32,8.30
2012,08,25,06,33,8.30
2012,08,25,06,34,8.30
2012,08,25,06,35,8.30
2012,08,25,06,36,8.30
2012,08,25,06,37,8.30
2012,08,25,06,38,8.30
2012,08,25,06,39,8.30
2012,08,25,06,40,8.30
2012,08,25,06,41,8.30
2012,08,25,06,42,8.30
2012,08,25,06,43,8.30
2012,08,25,06,44,8.30
2012,08,25,06,45,8.30
2012,08,25,06,46,8.30
2012,08,25,06,47,8.30
2012,08,25,06,48,8.30
2012,08,25,06,49,8.30
2012,08,25,06,50,8.30
2012,08,25,06,51,8.30
2012,08,25,06,52,8.20
2012,08,25,06,53,8.20
2012,08,25,06,54,8.20
2012,08,25,06,55,8.20
2012,08,25,06,56,8.20
2012,08,25,06,57,8.20
2012,08,25,06,58,8.20
2012,08,25,06,59,8.20
2012,08,25,07,00,8.20
2012,08,25,07,01,8.20
2012,08,25,07,02,8.20
2012,08,25,07,03,8.20
2012,08,25,07,04,8.20
2012,08,25,07,05,8.20
2012,08,25,07,06,8.20
2012,08,25,07,07,8.20
2012,08,25,07,08,8.20
2012,08,25,07,09,8.20
2012,08,25,07,10,8.20
2012,08,25,07,11,8.30
2012,08,25,07,12,8.30
2012,08,25,07,13,8.30
2012,08,25,07,14,8.30
2012,08,25,07,15,8.30
2012,08,25,07,16,8.30
2012,08,25,07,17,8.30
2012,08,25,07,18,8.30
2012,08,25,07,19,8.30
2012,08,25,07,20,8.30
2012,08,25,07,21,8.30
2012,08,25,07,22,8.30
2012,08,25,07,23,8.30
2012,08,25,07,24,8.30
2012,08,25,07,25,8.30
2012,08,25,07,26,8.40
2012,08,25,07,27,8.40
2012,08,25,07,28,8.40
2012,08,25,07,29,8.40
2012,08,25,07,30,8.40
2012,08,25,07,31,8.40
2012,08,25,07,32,8.40
2012,08,25,07,33,8.40
2012,08,25,07,34,8.50
2012,08,25,07,35,8.50
2012,08,25,07,36,8.60
2012,08,25,07,37,8.60
2012,08,25,07,38,8.70
2012,08,25,07,39,8.80
2012,08,25,07,40,8.80
2012,08,25,07,41,8.80
2012,08,25,07,42,8.90
2012,08,25,07,43,8.90
2012,08,25,07,44,9.00
2012,08,25,07,45,9.00
2012,08,25,07,46,9.10
2012,08,25,07,47,9.10
2012,08,25,07,48,9.10
2012,08,25,07,49,9.10
2012,08,25,07,50,9.20
2012,08,25,07,51,9.20
2012,08,25,07,52,9.20
2012,08,25,07,53,9.30
2012,08,25,07,54,9.30
2012,08,25,07,55,9.30
2012,08,25,07,56,9.40
2012,08,25,07,57,9.40
2012,08,25,07,58,9.50
2012,08,25,07,59,9.50
2012,08,25,08,00,9.60
2012,08,25,08,01,9.70
2012,08,25,08,02,9.70
2012,08,25,08,03,9.80
2012,08,25,08,04,9.80
2012,08,25,08,05,9.90
2012,08,25,08,06,9.90
2012,08,25,08,07,10.00
2012,08,25,08,08,10.10
2012,08,25,08,09,10.20
2012,08,25,08,10,10.40
2012,08,25,08,11,10.50
2012,08,25,08,12,10.60
2012,08,25,08,13,10.70
2012,08,25,08,14,10.80
2012,08,25,08,15,10.80
2012,08,25,08,16,10.90
2012,08,25,08,17,11.00
2012,08,25,08,18,11.10
2012,08,25,08,19,11.20
2012,08,25,08,20,11.30
2012,08,25,08,21,11.50
2012,08,25,08,22,11.70
2012,08,25,08,23,11.80
2012,08,25,08,24,12.00
2012,08,25,08,25,12.20
2012,08,25,08,26,12.40
2012,08,25,08,27,12.50
2012,08,25,08,28,12.70
2012,08,25,08,29,12.80
2012,08,25,08,30,13.00
2012,08,25,08,31,13.10
2012,08,25,08,32,13.30
2012,08,25,08,33,13.40
2012,08,25,08,34,13.50
2012,08,25,08,35,13.60
2012,08,25,08,36,13.80
2012,08,25,08,37,13.90
2012,08,25,08,38,14.00
2012,08,25,08,39,14.10
2012,08,25,08,40,14.20
2012,08,25,08,41,14.40
2012,08,25,08,42,14.50
2012,08,25,08,43,14.60
2012,08,25,08,44,14.70
2012,08,25,08,45,14.80
2012,08,25,08,46,14.80
2012,08,25,08,47,14.90
2012,08,25,08,48,15.00
2012,08,25,08,49,15.00
2012,08,25,08,50,15.10
2012,08,25,08,51,15.10
2012,08,25,08,52,15.20
2012,08,25,08,53,15.30
2012,08,25,08,54,15.40
2012,08,25,08,55,15.40
2012,08,25,08,56,15.50
2012,08,25,08,57,15.60
2012,08,25,08,58,15.60
2012,08,25,08,59,15.70
2012,08,25,09,00,15.80
2012,08,25,09,01,15.80
2012,08,25,09,02,15.80
2012,08,25,09,03,15.90
2012,08,25,09,04,15.90
2012,08,25,09,05,16.00
2012,08,25,09,06,16.10
2012,08,25,09,07,16.10
2012,08,25,09,08,16.20
2012,08,25,09,09,16.30
2012,08,25,09,10,16.40
2012,08,25,09,11,16.40
2012,08,25,09,12,16.50
2012,08,25,09,13,16.60
2012,08,25,09,14,16.60
2012,08,25,09,15,16.70
2012,08,25,09,16,16.70
2012,08,25,09,17,16.70
2012,08,25,09,18,16.80
2012,08,25,09,19,16.80
2012,08,25,09,20,16.80
2012,08,25,09,21,16.90
2012,08,25,09,22,16.90
2012,08,25,09,23,17.00
2012,08,25,09,24,17.00
2012,08,25,09,25,17.10
2012,08,25,09,26,17.10
2012,08,25,09,27,17.20
2012,08,25,09,28,17.30
2012,08,25,09,29,17.30
2012,08,25,09,30,17.30
2012,08,25,09,31,17.30
2012,08,25,09,32,17.40
2012,08,25,09,33,17.50
2012,08,25,09,34,17.60
2012,08,25,09,35,17.70
2012,08,25,09,36,17.70
2012,08,25,09,37,17.70
2012,08,25,09,38,17.80
2012,08,25,09,39,17.80
2012,08,25,09,40,17.90
2012,08,25,09,41,17.90
2012,08,25,09,42,17.90
2012,08,25,09,43,17.90
2012,08,25,09,44,18.00
2012,08,25,09,45,18.00
2012,08,25,09,46,18.10
2012,08,25,09,47,18.10
2012,08,25,09,48,18.10
2012,08,25,09,49,18.20
2012,08,25,09,50,18.20
2012,08,25,09,51,18.20
2012,08,25,09,52,18.20
2012,08,25,09,53,18.20
2012,08,25,09,54,18.20
2012,08,25,09,55,18.20
2012,08,25,09,56,18.20
2012,08,25,09,57,18.30
2012,08,25,09,58,18.40
2012,08,25,09,59,18.40
2012,08,25,10,00,18.50
2012,08,25,10,01,18.60
2012,08,25,10,02,18.60
2012,08,25,10,03,18.60
2012,08,25,10,04,18.70
2012,08,25,10,05,18.80
2012,08,25,10,06,18.80
2012,08,25,10,07,18.80
2012,08,25,10,08,18.80
2012,08,25,10,09,18.80
2012,08,25,10,10,18.80
2012,08,25,10,11,18.80
2012,08,25,10,12,18.80
2012,08,25,10,13,18.80
2012,08,25,10,14,18.90
2012,08,25,10,15,18.80
2012,08,25,10,16,18.80
2012,08,25,10,17,18.80
2012,08,25,10,18,18.70
2012,08,25,10,19,18.70
2012,08,25,10,20,18.70
2012,08,25,10,21,18.80
2012,08,25,10,22,18.80
2012,08,25,10,23,18.80
2012,08,25,10,24,18.90
2012,08,25,10,25,18.90
2012,08,25,10,26,18.90
2012,08,25,10,27,18.90
2012,08,25,10,28,18.90
2012,08,25,10,29,18.90
2012,08,25,10,30,19.00
2012,08,25,10,31,19.00
2012,08,25,10,32,19.00
2012,08,25,10,33,19.00
2012,08,25,10,34,18.90
2012,08,25,10,35,18.90
2012,08,25,10,36,18.80
2012,08,25,10,37,18.80
2012,08,25,10,38,18.90
2012,08,25,10,39,18.90
2012,08,25,10,40,19.00
2012,08,25,10,41,19.00
2012,08,25,10,42,19.00
2012,08,25,10,43,19.00
2012,08,25,10,44,19.00
2012,08,25,10,45,19.10
2012,08,25,10,46,19.10
2012,08,25,10,47,19.10
2012,08,25,10,48,19.20
2012,08,25,10,49,19.20
2012,08,25,10,50,19.20
2012,08,25,10,51,19.30
2012,08,25,10,52,19.30
2012,08,25,10,53,19.30
2012,08,25,10,54,19.40
2012,08,25,10,55,19.40
2012,08,25,10,56,19.40
2012,08,25,10,57,19.40
2012,08,25,10,58,19.50
2012,08,25,10,59,19.50
2012,08,25,11,00,19.60
2012,08,25,11,01,19.60
2012,08,25,11,02,19.60
2012,08,25,11,03,19.60
2012,08,25,11,04,19.60
2012,08,25,11,05,19.70
2012,08,25,11,06,19.60
2012,08,25,11,07,19.50
2012,08,25,11,08,19.50
2012,08,25,11,09,19.40
2012,08,25,11,10,19.30
2012,08,25,11,11,19.40
2012,08,25,11,12,19.40
2012,08,25,11,13,19.30
2012,08,25,11,14,19.30
2012,08,25,11,15,19.40
2012,08,25,11,16,19.50
2012,08,25,11,17,19.50
2012,08,25,11,18,19.50
2012,08,25,11,19,19.50
2012,08,25,11,20,19.50
2012,08,25,11,21,19.60
2012,08,25,11,22,19.60
2012,08,25,11,23,19.60
2012,08,25,11,24,19.60
2012,08,25,11,25,19.50
2012,08,25,11,26,19.50
2012,08,25,11,27,19.60
2012,08,25,11,28,19.70
2012,08,25,11,29,19.80
2012,08,25,11,30,19.80
2012,08,25,11,31,19.80
2012,08,25,11,32,19.80
2012,08,25,11,33,19.80
2012,08,25,11,34,19.80
2012,08,25,11,35,19.90
2012,08,25,11,36,19.90
2012,08,25,11,37,19.90
2012,08,25,11,38,20.00
2012,08,25,11,39,19.90
2012,08,25,11,40,19.90
2012,08,25,11,41,19.90
2012,08,25,11,42,20.00
2012,08,25,11,43,20.00
2012,08,25,11,44,20.10
2012,08,25,11,45,20.10
2012,08,25,11,46,20.10
2012,08,25,11,47,20.10
2012,08,25,11,48,20.20
2012,08,25,11,49,20.20
2012,08,25,11,50,20.30
2012,08,25,11,51,20.30
2012,08,25,11,52,20.50
2012,08,25,11,53,20.50
2012,08,25,11,54,20.60
2012,08,25,11,55,20.60
2012,08,25,11,56,20.60
2012,08,25,11,57,20.70
2012,08,25,11,58,20.80
2012,08,25,11,59,20.80
2012,08,25,12,00,20.80
2012,08,25,12,01,20.90
2012,08,25,12,02,20.80
2012,08,25,12,03,20.80
2012,08,25,12,04,20.90
2012,08,25,12,05,20.90
2012,08,25,12,06,20.90
2012,08,25,12,07,20.90
2012,08,25,12,08,20.90
2012,08,25,12,09,20.90
2012,08,25,12,10,20.90
2012,08,25,12,11,20.90
2012,08,25,12,12,21.00
2012,08,25,12,13,21.10
2012,08,25,12,14,21.10
2012,08,25,12,15,21.00
2012,08,25,12,16,21.00
2012,08,25,12,17,21.00
2012,08,25,12,18,20.90
2012,08,25,12,19,20.90
2012,08,25,12,20,20.80
2012,08,25,12,21,20.80
2012,08,25,12,22,20.70
2012,08,25,12,23,20.70
2012,08,25,12,24,20.70
2012,08,25,12,25,20.70
2012,08,25,12,26,20.80
2012,08,25,12,27,20.90
2012,08,25,12,28,21.00
2012,08,25,12,29,21.20
2012,08,25,12,30,21.30
2012,08,25,12,31,21.30
2012,08,25,12,32,21.30
2012,08,25,12,33,21.30
2012,08,25,12,34,21.40
2012,08,25,12,35,21.40
2012,08,25,12,36,21.40
2012,08,25,12,37,21.40
2012,08,25,12,38,21.30
2012,08,25,12,39,21.30
2012,08,25,12,40,21.20
2012,08,25,12,41,21.20
2012,08,25,12,42,21.30
2012,08,25,12,43,21.30
2012,08,25,12,44,21.30
2012,08,25,12,45,21.30
2012,08,25,12,46,21.30
2012,08,25,12,47,21.30
2012,08,25,12,48,21.40
2012,08,25,12,49,21.50
2012,08,25,12,50,21.60
2012,08,25,12,51,21.60
2012,08,25,12,52,21.60
2012,08,25,12,53,21.70
2012,08,25,12,54,21.70
2012,08,25,12,55,21.80
2012,08,25,12,56,21.80
2012,08,25,12,57,21.80
2012,08,25,12,58,21.80
2012,08,25,12,59,21.80
2012,08,25,13,00,21.80
2012,08,25,13,01,21.70
2012,08,25,13,02,21.70
2012,08,25,13,03,21.80
2012,08,25,13,04,21.80
2012,08,25,13,05,21.90
2012,08,25,13,06,22.00
2012,08,25,13,07,22.00
2012,08,25,13,08,22.10
2012,08,25,13,09,22.10
2012,08,25,13,10,22.10
2012,08,25,13,11,22.10
2012,08,25,13,12,22.10
2012,08,25,13,13,22.10
2012,08,25,13,14,22.00
2012,08,25,13,15,21.90
2012,08,25,13,16,21.90
2012,08,25,13,17,21.80
2012,08,25,13,18,21.80
2012,08,25,13,19,21.90
2012,08,25,13,20,21.90
2012,08,25,13,21,22.00
2012,08,25,13,22,22.10
2012,08,25,13,23,22.10
2012,08,25,13,24,22.20
2012,08,25,13,25,22.20
2012,08,25,13,26,22.10
2012,08,25,13,27,22.10
2012,08,25,13,28,22.00
2012,08,25,13,29,21.90
2012,08,25,13,30,21.80
2012,08,25,13,31,21.80
2012,08,25,13,32,21.90
2012,08,25,13,33,21.80
2012,08,25,13,34,21.80
2012,08,25,13,35,21.80
2012,08,25,13,36,21.90
2012,08,25,13,37,22.00
2012,08,25,13,38,22.10
2012,08,25,13,39,22.10
2012,08,25,13,40,22.20
2012,08,25,13,41,22.20
2012,08,25,13,42,22.30
2012,08,25,13,43,22.30
2012,08,25,13,44,22.40
2012,08,25,13,45,22.40
2012,08,25,13,46,22.40
2012,08,25,13,47,22.40
2012,08,25,13,48,22.40
2012,08,25,13,49,22.50
2012,08,25,13,50,22.40
2012,08,25,13,51,22.40
2012,08,25,13,52,22.40
2012,08,25,13,53,22.50
2012,08,25,13,54,22.50
2012,08,25,13,55,22.60
2012,08,25,13,56,22.60
2012,08,25,13,57,22.60
2012,08,25,13,58,22.50
2012,08,25,13,59,22.50
2012,08,25,14,00,22.50
2012,08,25,14,01,22.50
2012,08,25,14,02,22.60
2012,08,25,14,03,22.60
2012,08,25,14,04,22.70
2012,08,25,14,05,22.70
2012,08,25,14,06,22.70
2012,08,25,14,07,22.70
2012,08,25,14,08,22.80
2012,08,25,14,09,22.80
2012,08,25,14,10,22.80
2012,08,25,14,11,22.80
2012,08,25,14,12,22.80
2012,08,25,14,13,22.70
2012,08,25,14,14,22.70
2012,08,25,14,15,22.70
2012,08,25,14,16,22.80
2012,08,25,14,17,22.80
2012,08,25,14,18,22.80
2012,08,25,14,19,22.80
2012,08,25,14,20,22.80
2012,08,25,14,21,22.80
2012,08,25,14,22,22.90
2012,08,25,14,23,22.90
2012,08,25,14,24,23.00
2012,08,25,14,25,22.90
2012,08,25,14,26,22.90
2012,08,25,14,27,22.90
2012,08,25,14,28,22.90
2012,08,25,14,29,22.90
2012,08,25,14,30,22.90
2012,08,25,14,31,23.00
2012,08,25,14,32,23.10
2012,08,25,14,33,23.20
2012,08,25,14,34,23.30
2012,08,25,14,35,23.40
2012,08,25,14,36,23.40
2012,08,25,14,37,23.30
2012,08,25,14,38,23.30
2012,08,25,14,39,23.20
2012,08,25,14,40,23.10
2012,08,25,14,41,23.10
2012,08,25,14,42,23.10
2012,08,25,14,43,23.00
2012,08,25,14,44,22.90
2012,08,25,14,45,22.80
2012,08,25,14,46,22.80
2012,08,25,14,47,22.80
2012,08,25,14,48,22.80
2012,08,25,14,49,22.90
2012,08,25,14,50,23.00
2012,08,25,14,51,23.00
2012,08,25,14,52,23.00
2012,08,25,14,53,23.10
2012,08,25,14,54,23.10
2012,08,25,14,55,23.10
2012,08,25,14,56,23.20
2012,08,25,14,57,23.20
2012,08,25,14,58,23.30
2012,08,25,14,59,23.30
2012,08,25,15,00,23.30
2012,08,25,15,01,23.30
2012,08,25,15,02,23.20
2012,08,25,15,03,23.20
2012,08,25,15,04,23.20
2012,08,25,15,05,23.20
2012,08,25,15,06,23.20
2012,08,25,15,07,23.30
2012,08,25,15,08,23.30
2012,08,25,15,09,23.30
2012,08,25,15,10,23.30
2012,08,25,15,11,23.20
2012,08,25,15,12,23.20
2012,08,25,15,13,23.20
2012,08,25,15,14,23.30
2012,08,25,15,15,23.30
2012,08,25,15,16,23.20
2012,08,25,15,17,23.20
2012,08,25,15,18,23.20
2012,08,25,15,19,23.10
2012,08,25,15,20,23.10
2012,08,25,15,21,23.10
2012,08,25,15,22,23.20
2012,08,25,15,23,23.10
2012,08,25,15,24,23.10
2012,08,25,15,25,23.10
2012,08,25,15,26,23.10
2012,08,25,15,27,23.10
2012,08,25,15,28,23.10
2012,08,25,15,29,23.10
2012,08,25,15,30,23.10
2012,08,25,15,31,23.10
2012,08,25,15,32,23.20
2012,08,25,15,33,23.20
2012,08,25,15,34,23.30
2012,08,25,15,35,23.30
2012,08,25,15,36,23.30
2012,08,25,15,37,23.20
2012,08,25,15,38,23.20
2012,08,25,15,39,23.20
2012,08,25,15,40,23.20
2012,08,25,15,41,23.30
2012,08,25,15,42,23.40
2012,08,25,15,43,23.50
2012,08,25,15,44,23.50
2012,08,25,15,45,23.50
2012,08,25,15,46,23.40
2012,08,25,15,47,23.30
2012,08,25,15,48,23.30
2012,08,25,15,49,23.30
2012,08,25,15,50,23.20
2012,08,25,15,51,23.00
2012,08,25,15,52,23.00
2012,08,25,15,53,23.00
2012,08,25,15,54,23.10
2012,08,25,15,55,23.20
2012,08,25,15,56,23.20
2012,08,25,15,57,23.30
2012,08,25,15,58,23.20
2012,08,25,15,59,23.20
2012,08,25,16,00,23.20
2012,08,25,16,01,23.20
2012,08,25,16,02,23.30
2012,08,25,16,03,23.20
2012,08,25,16,04,23.10
2012,08,25,16,05,23.10
2012,08,25,16,06,23.00
2012,08,25,16,07,23.00
2012,08,25,16,08,23.00
2012,08,25,16,09,23.00
2012,08,25,16,10,23.10
2012,08,25,16,11,23.00
2012,08,25,16,12,22.90
2012,08,25,16,13,22.80
2012,08,25,16,14,22.70
2012,08,25,16,15,22.60
2012,08,25,16,16,22.50
2012,08,25,16,17,22.30
2012,08,25,16,18,22.10
2012,08,25,16,19,21.90
2012,08,25,16,20,21.80
2012,08,25,16,21,21.60
2012,08,25,16,22,21.40
2012,08,25,16,23,21.50
2012,08,25,16,24,21.50
2012,08,25,16,25,21.60
2012,08,25,16,26,21.60
2012,08,25,16,27,21.70
2012,08,25,16,28,21.70
2012,08,25,16,29,21.70
2012,08,25,16,30,21.70
2012,08,25,16,31,21.70
2012,08,25,16,32,21.80
2012,08,25,16,33,21.80
2012,08,25,16,34,21.70
2012,08,25,16,35,21.70
2012,08,25,16,36,21.60
2012,08,25,16,37,21.60
2012,08,25,16,38,21.50
2012,08,25,16,39,21.50
2012,08,25,16,40,21.50
2012,08,25,16,41,21.50
2012,08,25,16,42,21.60
2012,08,25,16,43,21.60
2012,08,25,16,44,21.60
2012,08,25,16,45,21.70
2012,08,25,16,46,21.80
2012,08,25,16,47,21.80
2012,08,25,16,48,21.70
2012,08,25,16,49,21.70
2012,08,25,16,50,21.60
2012,08,25,16,51,21.60
2012,08,25,16,52,21.60
2012,08,25,16,53,21.50
2012,08,25,16,54,21.50
2012,08,25,16,55,21.50
2012,08,25,16,56,21.60
2012,08,25,16,57,21.60
2012,08,25,16,58,21.60
2012,08,25,16,59,21.60
2012,08,25,17,00,21.60
2012,08,25,17,01,21.70
2012,08,25,17,02,21.70
2012,08,25,17,03,21.70
2012,08,25,17,04,21.60
2012,08,25,17,05,21.60
2012,08,25,17,06,21.60
2012,08,25,17,07,21.60
2012,08,25,17,08,21.60
2012,08,25,17,09,21.60
2012,08,25,17,10,21.50
2012,08,25,17,11,21.40
2012,08,25,17,12,21.40
2012,08,25,17,13,21.40
2012,08,25,17,14,21.50
2012,08,25,17,15,21.50
2012,08,25,17,16,21.60
2012,08,25,17,17,21.60
2012,08,25,17,18,21.70
2012,08,25,17,19,21.70
2012,08,25,17,20,21.60
2012,08,25,17,21,21.50
2012,08,25,17,22,21.50
2012,08,25,17,23,21.40
2012,08,25,17,24,21.40
2012,08,25,17,25,21.40
2012,08,25,17,26,21.30
2012,08,25,17,27,21.40
2012,08,25,17,28,21.40
2012,08,25,17,29,21.50
2012,08,25,17,30,21.50
2012,08,25,17,31,21.40
2012,08,25,17,32,21.50
2012,08,25,17,33,21.50
2012,08,25,17,34,21.40
2012,08,25,17,35,21.30
2012,08,25,17,36,21.20
2012,08,25,17,37,21.20